Volver al catálogo

HULIANWANG DIGUI-99

ActivoComunicacionesLEO
NORAD 66415·PAYLOAD·🇨🇳 China

Lanzado Nov 10, 2025 desde Wenchang Space Launch Site

Loading…

Próximos Pases (próximas 24 horas)

TLE

ActualizadoSource: Space-Track

Época: Sep 14, 2026, 14:03 UTC

1 66415U 25258D   26257.58546575 -.00000079  00000-0  97996-4 0  9992
2 66415  50.0067 334.9396 0000204 109.2307 250.8587 13.29329999 41610

Sigue HULIANWANG DIGUI-99 en tiempo real con AllMySat

Download on the App Store